Find Starlink 32201

NORAD ID: 61512 Int'l Des: 2024-183 Owner: SPXS Country: US Constellation: starlink operational
LEOCIRCULAR

現在のビュー

3D地球を読み込み中...

Starlink 32201について

説明を読み込み中...

次回通過

Passes for default location (London). Set your location on the main map for personalized predictions.

高度履歴

Loading altitude history...

軌道要素

1 61512U 24183D 26159.50002315 .00734671 00000-0 20774-1 0 9991
2 61512 53.1605 67.6668 0000979 358.7687 180.8943 15.33608041 5903
Epoch: Jun 8, 2026 • Age: 11 hours

現在のステータス

高度 474.6 km
速度 7.63 km/s
衛星直下点 -34.62°S, 31.96°E
打ち上げ日 Oct 15, 2024
運用期間 1.6 years
タイプ internet

技術仕様

分類 Payload
質量 730.00 kg
乾燥質量 700.00 kg
総質量 730.00 kg
長さ 0.30 m
直径 4.10 m
スパン 29.00 m
形状 Box + pan
製造者 SPXS
バスタイプ Starlink V2M
フェーズステータス In Orbit
所有者/国 SPXS/US

Most Searched